Regional Weather Roundup
Issued by NWS

Home | Current Version | Previous Version | Text Only | Print | Product List | Glossary On
Versions: 1 2 3 4 5 6 7 8 9 10 11 12 13 14 15 16 17 18 19 20 21 22 23 24 25 26 27 28 29 30 31 32 33 34 35 36 37 38 39 40 41 42 43 44 45 46 47 48 49 50
000
ASUS43 KLSX 301207
RWRMO

WEATHER SUMMARY FOR MISSOURI
NATIONAL WEATHER SERVICE SPRINGFIELD MO
700 AM CDT THU MAR 30 2017

NOTE: "FAIR" INDICATES FEW OR NO CLOUDS BELOW 12,000 FEET WITH NO
       SIGNIFICANT WEATHER AND/OR OBSTRUCTIONS TO VISIBILITY.
       CURRENT SKY AND/OR WEATHER CONDITIONS ARE NOT AVAILABLE FOR
       CHILLICOTHE AND FARMINGTON.

MOZ001>031-035>038-043-044-053-054-301300-
...NORTHERN AND WESTERN MISSOURI...

CITY           SKY/WX    TMP DP  RH WIND       PRES   REMARKS
KANSAS CTY INT CLOUDY    48  46  93 S7        29.56R
6HR MIN TEMP:  49; 6HR MAX TEMP:  53; 6HR PCP: TRACE;

KANSAS C DTWN  PTCLDY    49  45  86 S5        29.56S
6HR MIN TEMP:  49; 6HR MAX TEMP:  55; 6HR PCP: TRACE;

LEE`S SUMMIT   CLOUDY    48  45  89 S6        29.57R
6HR MIN TEMP:  48; 6HR MAX TEMP:  54;

ST JOSEPH      CLOUDY    49  48  97 NE7       29.58R
6HR MIN TEMP:  49; 6HR MAX TEMP:  51; 6HR PCP: TRACE;

CHILLICOTHE      N/A     49  47  93 NE7       29.58S
6HR MIN TEMP:  47; 6HR MAX TEMP:  51;

KIRKSVILLE     CLOUDY    48  50 100 NE10      29.59S FOG
6HR MIN TEMP:  48; 6HR MAX TEMP:  49; 6HR PCP:  0.12;


$$
MOZ066>068-077>081-088>096-101>105-301300-
...SOUTHWEST MISSOURI...

CITY           SKY/WX    TMP DP  RH WIND       PRES   REMARKS
SPRINGFIELD    MOCLDY    47  42  83 SW10      29.60S
6HR MIN TEMP:  46; 6HR MAX TEMP:  57;

JOPLIN         CLOUDY    47  43  86 SW14      29.62R
6HR MIN TEMP:  47; 6HR MAX TEMP:  51;

BRANSON        MOCLDY    46  41  81 W10G18    29.64R

$$
MOZ032>034-039>042-045>050-055>058-069>072-301300-
...CENTRAL MISSOURI...

CITY           SKY/WX    TMP DP  RH WIND       PRES   REMARKS
COLUMBIA       FOG       57  57 100 S3        29.58R VSB 1/2
6HR MIN TEMP:  57; 6HR MAX TEMP:  60; 6HR PCP:  0.06;

JEFFERSON CITY CLOUDY    62  58  86 CALM      29.58R
6HR MIN TEMP:  61; 6HR MAX TEMP:  64; 6HR PCP:  0.06;

ROLLA          CLOUDY    57  55  93 S6        29.57S
6HR MIN TEMP:  57; 6HR MAX TEMP:  63; 6HR PCP:  0.04;

SEDALIA        CLOUDY    50  46  86 SW10      29.59R
6HR MIN TEMP:  50; 6HR MAX TEMP:  58;

WHITEMAN AFB   PTCLDY    45  45 100 SW7       29.57S
WARRENSBURG    CLOUDY    46  43  87 S5        29.58S
OSAGE BEACH    CLOUDY    55  54  96 SW5       29.61R

$$
MOZ051-052-059>065-301300-
...EAST CENTRAL MISSOURI...

CITY           SKY/WX    TMP DP  RH WIND       PRES   REMARKS
ST LOUIS INTL  RAIN      62  58  86 SE14      29.60F FOG
6HR MIN TEMP:  59; 6HR MAX TEMP:  63; 6HR PCP:  0.07;

SPIRIT OF STL  RAIN      60  60 100 CALM      29.58F FOG
6HR MIN TEMP:  57; 6HR MAX TEMP:  62; 6HR PCP:  0.37;

ST CHARLES     LGT RAIN  57  57 100 E7        29.58F FOG
6HR MIN TEMP:  56; 6HR MAX TEMP:  58; 6HR PCP:  0.59;


$$
MOZ072>076-082>087-097>100-106>115-301300-
...SOUTH CENTRAL AND SOUTHEAST MISSOURI...

CITY           SKY/WX    TMP DP  RH WIND       PRES   REMARKS
CAPE GIRARDEAU CLOUDY    63  58  83 S12       29.65F
6HR MIN TEMP:  63; 6HR MAX TEMP:  70; 6HR PCP:  0.10;

FARMINGTON     CLOUDY    61  59  93 S8        29.62R
6HR MIN TEMP:  59; 6HR MAX TEMP:  67;

POPLAR BLUFF   LGT RAIN  66  58  75 S15       29.64R
6HR MIN TEMP:  66; 6HR MAX TEMP:  70; 6HR PCP:  0.01;

WEST PLAINS    MOCLDY    59  57  93 S7        29.59F
6HR MIN TEMP:  59; 6HR MAX TEMP:  63;


$$




USA.gov is the U.S. government's official web portal to all federal, state and local government web resources and services.